Temperature
20 21 21 22 22 20 20 19 19 20 19 20 19 19 19 20 20 20 20 20 21 20 20 20 19 19 19 18 18 18 18 17 17 17 17 17 16 16 16 16 16 16 16 16
21 21 21 22 21 21 21 20 20 20 20 19 19 19 19 19 20 20 20 21 21 20 20 20 20 19 19 18 18 18 18 17 17 17 16 16 16 16 16 16 16 15 15 15
19 20 21 21 21 21 21 20 20 20 20 19 18 18 19 20 20 21 21 21 21 21 21 20 20 20 19 18 18 18 17 17 17 16 16 16 16 16 15 15 15 15 15 15
17 20 21 20 20 20 20 20 19 19 19 18 18 19 20 20 21 21 21 21 21 21 20 20 19 19 19 18 18 17 17 17 16 16 16 15 15 15 15 15 15 15 15 14
15 17 19 20 19 19 19 20 19 18 18 18 18 18 19 20 21 21 21 21 20 20 20 20 19 19 18 18 17 17 17 16 16 16 15 15 15 15 15 15 15 14 14 14
15 18 18 19 19 19 19 19 18 18 17 17 18 18 18 20 20 20 20 20 20 20 19 19 18 18 18 17 17 17 16 16 16 15 15 15 15 14 14 14 14 14 14 13
15 17 17 17 17 19 19 19 18 18 18 18 17 18 19 19 19 19 19 19 19 19 19 19 18 18 17 17 17 16 16 15 15 15 14 14 14 14 14 14 13 13 13 13
14 16 17 17 17 17 17 18 18 18 18 18 18 19 19 19 19 19 19 19 19 19 18 18 18 17 17 17 16 16 15 15 15 14 14 14 14 13 13 13 13 13 12 12
14 15 15 15 16 17 17 17 18 18 18 18 18 18 18 18 18 18 18 18 18 18 17 17 17 17 17 16 15 15 15 15 14 14 14 13 13 13 13 12 12 12 11 11
13 14 14 15 16 16 17 18 18 18 18 18 18 18 17 17 17 17 17 17 17 17 17 16 16 16 16 15 15 15 14 14 14 13 13 13 12 12 12 12 11 11 11 10
12 13 14 15 16 16 17 17 18 18 18 18 18 17 17 16 17 17 16 16 16 16 16 15 15 15 15 15 14 14 14 13 13 13 12 12 11 11 11 11 11 10 10 10
12 13 13 14 15 16 16 17 17 17 17 17 17 17 16 16 16 16 15 15 15 15 15 15 14 14 14 14 14 13 13 13 12 12 12 11 11 10 10 10 9 9 9 9
14 14 14 15 15 15 16 16 16 16 16 16 16 16 16 15 15 15 15 14 14 14 14 14 13 13 13 13 13 13 13 12 12 12 11 10 10 10 9 9 9 8 8 8
14 14 14 14 15 15 15 15 15 15 15 15 15 15 15 15 14 14 14 14 14 14 13 13 13 13 12 12 12 12 12 12 11 11 10 10 10 9 9 9 8 8 8 8
14 14 14 14 14 14 14 14 15 15 15 14 14 14 14 14 14 13 13 13 13 13 13 13 12 12 12 12 12 11 11 11 11 10 10 10 9 9 9 8 8 8 7 7
14 14 14 14 14 13 14 14 14 14 14 14 14 13 13 13 13 13 13 13 12 12 12 12 12 11 11 11 11 11 11 10 10 10 9 9 9 9 8 8 8 7 7 7
13 13 13 13 13 13 13 13 14 13 13 13 13 13 13 13 13 12 12 12 12 11 11 11 11 11 11 10 10 10 10 10 9 9 9 9 8 8 8 8 7 7 7 7
14 14 14 14 13 13 13 13 13 13 13 13 13 13 12 12 12 12 11 11 11 11 10 10 10 10 10 10 10 9 9 9 9 9 8 8 8 8 8 7 7 7 7 7
13 13 13 13 13 13 13 12 12 12 12 12 12 12 12 11 11 11 11 11 10 10 10 10 10 9 9 9 9 9 9 8 8 8 8 8 8 7 7 7 7 7 7 7
13 13 13 13 12 12 12 12 12 11 11 11 11 11 11 11 10 10 10 10 10 9 9 9 9 9 9 8 8 8 8 8 8 8 8 8 8 7 7 7 7 7 7 6
12 12 12 12 12 11 11 11 11 11 11 11 11 10 10 10 10 10 9 9 9 9 9 9 8 8 8 8 8 8 8 8 8 8 8 8 8 7 7 7 7 7 7 7
11 11 11 11 10 10 10 10 10 10 10 10 10 10 10 9 9 9 9 9 8 8 8 8 8 8 8 8 8 8 8 8 8 8 8 8 8 7 7 7 7 7 7 7
10 10 10 10 10 10 9 9 10 10 10 10 10 9 9 9 9 9 8 8 8 8 8 8 8 8 8 8 8 8 8 8 8 8 8 8 8 8 7 7 7 7 7 7
9 9 9 9 9 9 9 9 9 9 9 9 9 9 9 9 8 8 8 8 8 8 8 8 8 8 8 8 8 8 8 8 8 8 8 8 8 8 8 7 7 7 7 7
9 9 9 9 9 9 9 9 9 8 8 8 8 8 8 8 8 8 8 8 8 8 8 8 8 8 8 8 8 8 8 8 8 8 8 8 8 8 8 8 7 7 7 7
9 9 9 9 9 9 8 9 8 8 8 8 8 8 8 8 8 8 8 8 8 8 8 8 8 8 8 8 8 8 8 8 8 8 8 8 8 8 8 8 8 7 7 7
9 9 9 9 8 9 9 9 9 8 8 8 8 8 8 8 8 8 8 8 8 8 8 8 8 8 8 8 8 8 8 8 8 8 8 8 8 8 8 8 8 8 7 7
Wind_Speed
5 4 4 4 5 7 6 9 9 8 8 10 9 8 7 6 6 6 6 7 8 7 6 6 6 5 5 5 4 5 5 5 5 5 5 5 4 4 4 4 4 4 4 3
0 1 3 2 3 6 5 5 5 4 7 7 4 3 4 6 8 8 8 8 8 7 7 7 7 7 6 6 5 5 6 5 5 6 5 5 5 5 5 5 5 5 4 4
2 1 3 2 3 4 4 4 6 7 8 3 3 6 8 9 9 9 9 8 8 7 7 7 7 7 7 6 6 6 6 6 6 6 6 5 5 6 6 5 5 5 5 4
3 4 4 6 2 2 4 2 3 4 4 5 6 5 3 3 7 7 6 7 6 6 6 5 6 6 6 7 7 7 7 6 6 6 6 6 6 6 6 5 6 5 5 5
4 4 3 4 1 1 2 3 2 3 3 2 4 4 3 1 3 5 5 5 5 5 5 6 7 7 8 7 7 7 6 6 6 7 7 7 6 6 5 6 6 5 5 6
5 5 6 6 4 2 3 3 2 2 4 5 5 3 3 1 4 4 4 4 5 5 6 7 7 8 9 8 7 7 6 7 7 7 7 7 6 6 5 6 7 7 7 6
4 4 5 5 4 1 5 6 3 3 4 6 5 4 3 5 6 5 5 5 5 6 6 6 7 8 8 7 6 6 7 7 7 7 7 7 7 6 7 7 8 7 7 7
5 4 6 3 1 4 5 2 1 2 3 4 4 5 6 7 6 6 6 6 6 6 5 5 7 9 8 6 6 7 8 8 8 7 7 7 8 7 7 7 8 7 7 7
5 5 4 2 3 4 2 2 1 2 2 5 6 5 6 6 6 6 5 5 6 7 7 5 5 7 9 6 7 8 9 8 8 8 7 7 8 8 6 6 6 5 5 5
1 3 3 3 3 3 1 1 0 2 4 5 7 7 7 6 6 6 6 6 6 7 7 6 5 6 6 7 7 9 9 8 8 8 8 7 6 5 5 5 5 5 6 6
1 3 3 3 3 3 3 2 3 4 3 5 8 8 7 6 6 6 5 5 6 6 6 6 6 6 6 6 8 9 9 8 8 8 8 8 7 6 5 4 4 6 6 6
5 5 3 3 3 2 2 2 3 4 4 5 6 7 7 6 5 6 6 5 6 6 6 6 6 6 5 6 7 9 8 7 6 7 7 7 8 8 13 10 12 11 9 8
4 2 3 2 1 1 1 2 3 5 5 5 5 6 7 6 6 6 6 6 5 5 6 6 6 6 5 6 7 8 8 8 6 7 7 7 6 7 8 9 13 13 11 11
3 2 1 1 0 1 3 4 5 6 6 6 6 7 7 7 7 6 6 5 5 6 6 6 6 5 5 6 8 8 8 8 8 7 7 7 7 7 7 7 6 5 7 10
2 3 3 2 2 2 3 4 6 5 5 6 6 6 7 7 7 6 5 5 6 7 7 7 7 5 5 7 8 8 7 7 7 7 7 7 7 7 7 7 6 5 5 5
2 3 4 4 4 2 2 4 4 4 5 5 6 6 6 7 8 7 6 6 7 6 6 6 6 5 6 7 8 7 7 11 10 8 7 7 7 7 7 7 6 6 5 4
4 4 4 4 4 3 2 2 3 4 5 5 6 7 8 9 8 7 6 6 7 6 6 6 6 6 7 7 8 7 7 9 11 9 7 6 6 6 6 6 6 5 4 4
4 5 5 6 6 5 3 3 4 5 5 5 7 8 8 8 7 6 6 7 8 8 7 6 7 7 7 7 7 7 7 7 6 7 6 6 6 6 6 6 6 5 4 4
3 4 5 5 5 6 5 4 4 5 6 7 8 8 7 7 7 7 7 8 8 7 5 6 9 8 8 8 8 6 7 8 7 6 6 7 6 6 5 5 5 5 4 4
5 6 6 6 6 6 6 5 6 6 6 7 8 9 9 8 7 8 8 7 4 4 5 7 7 7 7 7 8 6 7 7 7 6 6 5 5 5 5 5 4 4 4 4
6 6 7 7 7 6 6 6 7 7 7 7 8 9 9 8 7 7 7 6 4 5 6 8 6 5 5 6 7 6 6 6 6 5 5 4 4 4 4 4 4 4 4 4
5 6 7 7 7 7 6 6 7 8 8 8 9 9 9 9 8 7 6 4 4 6 6 5 5 6 7 7 5 5 5 5 5 4 4 4 4 4 4 4 4 4 4 5
5 6 7 7 8 7 7 7 7 8 8 8 8 8 8 6 5 6 5 3 4 7 6 5 6 8 8 6 5 5 4 4 4 4 4 4 4 4 4 5 4 5 5 5
7 7 7 7 8 8 8 7 7 7 8 8 7 7 7 6 5 4 4 6 7 8 5 6 8 9 7 4 4 3 3 3 3 3 4 4 4 4 4 4 5 5 5 6
8 8 8 9 8 7 7 8 9 8 8 7 7 6 5 4 5 5 5 6 7 7 5 6 7 7 5 3 3 2 2 3 3 3 4 4 4 4 5 5 5 5 5 6
8 7 7 7 6 6 6 6 6 6 6 6 6 5 5 5 6 6 5 5 6 6 4 3 3 3 2 2 2 1 1 2 3 3 4 4 4 5 5 5 6 6 6 6
8 8 7 7 6 6 6 6 6 6 5 6 6 5 5 5 5 5 5 4 4 3 2 2 2 1 1 1 1 1 1 1 2 2 3 3 4 4 5 6 6 6 6 7
Wind_Direction
215 208 168 173 173 166 169 177 180 220 220 243 230 218 211 198 175 164 167 174 175 176 177 170 158 152 150 150 145 143 139 141 146 137 127 123 118 115 114 114 121 119 116 116
112 155 165 161 182 176 183 174 195 205 244 246 230 171 181 187 181 181 181 183 183 181 177 173 167 158 153 152 148 142 141 138 127 120 117 114 111 104 99 93 93 96 100 105
205 269 103 213 216 180 178 186 176 203 231 215 177 188 196 195 191 192 188 184 184 185 186 178 170 159 159 158 146 141 139 133 128 127 124 121 118 109 104 98 93 92 92 96
130 104 185 238 284 178 162 206 209 232 238 204 200 190 182 192 193 195 185 179 180 175 170 158 150 143 142 139 137 135 133 129 126 125 121 116 110 106 101 97 96 92 88 88
123 150 242 287 291 134 164 257 245 225 236 170 126 84 21 315 176 175 165 160 162 162 155 144 144 143 136 134 131 131 132 129 127 128 126 121 115 109 102 102 96 91 88 86
127 146 204 234 271 282 136 271 277 198 187 160 130 143 243 173 114 114 115 126 134 132 127 134 140 139 137 138 137 141 141 133 127 125 127 125 121 113 103 101 97 92 83 79
142 176 241 256 287 71 158 233 262 206 190 167 176 192 166 111 100 103 107 109 112 116 126 137 135 130 135 136 143 140 128 121 119 122 123 120 114 108 106 104 98 93 88 77
138 161 235 295 65 173 218 271 255 202 177 154 135 117 110 106 107 103 101 101 107 111 109 117 133 136 137 141 137 126 121 118 117 117 117 116 113 108 106 109 107 102 96 84
184 204 252 292 252 272 250 245 255 162 138 137 132 128 116 111 109 105 103 103 106 115 109 101 113 133 140 141 135 129 122 119 115 111 109 114 118 118 112 109 113 112 109 102
270 284 296 314 316 321 313 243 227 136 131 135 135 129 116 111 105 103 104 107 110 113 114 106 100 105 122 132 133 129 124 120 118 114 107 101 100 107 115 120 122 121 118 114
270 276 325 334 333 337 5 52 90 97 101 128 129 128 126 120 116 109 103 102 109 117 119 114 109 105 109 121 126 125 123 122 119 115 113 102 88 76 92 84 123 133 133 132
219 228 199 249 296 335 34 60 103 106 90 99 119 125 119 113 108 104 99 98 99 105 112 114 115 109 107 115 125 129 126 124 122 120 115 114 109 85 62 72 79 88 99 111
221 221 201 223 323 31 72 54 77 96 110 106 104 116 117 111 101 98 95 96 105 113 115 116 115 112 112 115 119 124 129 128 124 122 121 121 119 117 103 73 69 75 86 98
203 173 203 232 180 82 89 84 84 84 88 100 106 107 109 107 104 101 98 98 106 108 108 111 112 109 110 116 116 117 120 124 125 124 123 122 122 121 122 121 109 79 67 85
217 183 177 141 97 87 92 98 96 94 96 95 100 107 114 115 111 106 102 101 101 99 100 107 111 109 109 115 118 120 120 121 120 118 117 117 117 116 116 115 115 109 97 80
160 128 129 128 120 105 105 113 116 119 115 109 107 108 111 111 107 102 97 100 107 108 109 109 110 111 112 115 117 116 116 122 122 120 119 119 121 121 121 122 122 124 125 127
162 164 161 155 146 132 118 125 131 128 121 119 119 116 112 108 102 98 93 92 97 101 105 109 110 109 108 112 116 118 119 125 122 118 120 125 127 128 130 131 133 134 135 140
202 187 170 162 156 140 122 109 105 110 118 119 116 114 113 113 111 108 104 102 96 88 86 100 110 110 107 108 111 115 119 122 122 121 122 123 125 128 132 135 139 137 131 123
122 129 130 131 130 127 127 123 114 106 107 112 114 111 107 105 108 109 107 104 103 101 97 105 109 109 111 115 115 112 117 119 118 118 121 124 123 126 131 139 145 146 146 145
101 106 111 110 109 114 120 119 114 107 107 112 112 109 106 106 108 107 103 95 91 106 119 117 112 110 113 118 114 115 120 124 125 126 127 132 134 137 141 148 152 155 159 164
105 108 111 109 104 100 103 108 112 112 110 114 117 118 114 108 106 107 106 99 84 99 111 112 110 111 110 113 110 115 119 122 127 132 137 140 144 149 154 160 166 170 174 178
112 114 116 113 109 101 97 101 108 111 110 109 109 111 111 108 105 95 86 100 110 110 109 108 109 111 113 110 109 116 122 127 132 137 143 151 158 165 171 177 184 188 189 191
108 112 113 114 112 108 99 97 102 107 109 111 113 115 115 112 113 115 109 103 112 108 105 104 111 112 111 108 111 117 126 137 149 158 163 170 178 182 186 192 199 200 199 202
101 101 103 105 106 104 100 96 95 98 102 103 107 114 117 112 93 82 106 112 108 106 104 112 114 114 112 112 118 126 142 158 167 172 174 178 182 185 191 198 205 209 211 215
100 100 101 102 101 102 104 103 99 96 96 96 96 95 96 103 112 114 108 109 108 102 100 105 108 109 107 112 127 148 163 174 178 179 186 190 197 201 207 212 216 218 219 222
94 93 91 91 97 101 103 105 104 102 105 102 93 91 92 94 102 104 102 104 103 98 95 94 97 105 116 131 142 159 174 184 188 192 197 204 210 212 215 217 219 222 225 228
88 89 90 85 80 84 92 97 103 103 106 109 102 95 100 102 104 105 105 105 105 103 101 95 98 110 120 129 138 179 209 209 208 208 207 210 213 219 224 226 228 231 232 232
Height
1484 1480 1480 1481 1484 1490 1492 1498 1506 1501 1499 1488 1483 1483 1483 1485 1487 1490 1492 1495 1497 1500 1503 1505 1507 1510 1512 1515 1517 1518 1519 1520 1522 1524 1526 1529 1530 1532 1533 1535 1536 1537 1539 1540
1483 1480 1480 1483 1482 1485 1486 1489 1492 1491 1491 1480 1479 1481 1483 1484 1486 1488 1490 1493 1496 1499 1501 1504 1506 1509 1511 1514 1516 1517 1519 1520 1522 1524 1526 1528 1529 1531 1532 1533 1534 1536 1537 1538
1493 1484 1482 1492 1484 1483 1483 1483 1485 1489 1483 1477 1479 1479 1480 1481 1483 1485 1488 1492 1495 1498 1501 1503 1505 1507 1510 1513 1515 1517 1519 1520 1522 1524 1525 1527 1528 1529 1530 1532 1533 1534 1536 1537
1496 1491 1501 1490 1477 1476 1478 1479 1478 1478 1476 1475 1475 1476 1478 1480 1482 1484 1488 1491 1494 1497 1500 1502 1505 1507 1510 1512 1514 1516 1518 1519 1522 1524 1525 1527 1528 1529 1530 1531 1532 1534 1535 1536
1501 1501 1496 1484 1477 1478 1480 1480 1476 1476 1475 1475 1476 1478 1480 1481 1482 1485 1488 1490 1493 1496 1499 1501 1503 1506 1508 1511 1513 1515 1517 1519 1521 1523 1524 1526 1527 1529 1530 1531 1532 1533 1534 1535
1498 1499 1501 1486 1475 1474 1478 1483 1474 1474 1474 1475 1476 1482 1481 1480 1481 1485 1488 1490 1493 1495 1498 1500 1502 1505 1507 1510 1512 1514 1516 1518 1520 1522 1524 1525 1526 1528 1529 1530 1531 1533 1534 1535
1495 1496 1491 1478 1474 1474 1487 1483 1472 1472 1472 1473 1475 1477 1478 1479 1481 1485 1488 1490 1493 1495 1497 1499 1502 1504 1506 1509 1511 1513 1515 1517 1519 1521 1523 1524 1526 1527 1529 1530 1531 1532 1533 1534
1495 1496 1493 1475 1474 1477 1477 1471 1470 1471 1472 1473 1474 1476 1477 1479 1482 1485 1487 1490 1492 1495 1497 1499 1500 1503 1505 1508 1511 1513 1515 1516 1518 1520 1522 1523 1525 1526 1528 1529 1531 1532 1533 1534
1486 1486 1477 1474 1474 1472 1471 1470 1470 1471 1472 1473 1475 1477 1478 1480 1483 1485 1488 1490 1492 1494 1497 1499 1500 1502 1504 1507 1510 1512 1514 1515 1517 1519 1521 1523 1525 1526 1527 1528 1529 1531 1532 1533
1482 1478 1475 1473 1472 1471 1470 1470 1470 1471 1472 1473 1475 1477 1479 1481 1484 1485 1488 1490 1491 1494 1496 1498 1500 1502 1504 1506 1509 1511 1512 1514 1516 1518 1520 1522 1524 1525 1527 1528 1529 1530 1532 1533
1481 1477 1475 1473 1472 1472 1470 1470 1471 1472 1473 1474 1476 1478 1480 1482 1484 1486 1488 1489 1491 1493 1495 1497 1499 1502 1504 1506 1508 1510 1511 1513 1515 1517 1519 1521 1523 1525 1527 1528 1530 1531 1532 1533
1480 1475 1475 1474 1473 1473 1472 1471 1472 1473 1474 1476 1477 1479 1481 1483 1485 1486 1487 1489 1491 1493 1495 1497 1499 1501 1503 1505 1507 1509 1511 1513 1515 1517 1519 1521 1523 1524 1527 1529 1530 1532 1533 1535
1474 1474 1474 1473 1473 1473 1473 1473 1473 1473 1475 1476 1478 1480 1481 1483 1485 1486 1488 1490 1492 1494 1495 1497 1499 1501 1503 1505 1507 1509 1510 1512 1514 1516 1519 1521 1523 1525 1527 1529 1531 1533 1535 1536
1472 1473 1473 1473 1473 1473 1473 1473 1474 1474 1476 1477 1479 1480 1482 1483 1485 1487 1489 1491 1492 1494 1495 1497 1499 1501 1502 1504 1506 1508 1510 1513 1514 1517 1519 1521 1524 1526 1527 1529 1532 1534 1536 1538
1470 1471 1472 1472 1473 1473 1474 1474 1474 1475 1476 1478 1479 1481 1483 1484 1485 1487 1489 1491 1493 1494 1496 1497 1499 1501 1502 1504 1506 1508 1510 1513 1515 1517 1520 1522 1525 1527 1529 1531 1534 1535 1537 1540
1469 1470 1471 1472 1473 1473 1474 1474 1474 1476 1477 1478 1480 1482 1483 1484 1486 1488 1490 1492 1493 1495 1496 1498 1499 1501 1503 1504 1506 1509 1511 1513 1515 1518 1521 1523 1525 1528 1530 1532 1535 1537 1539 1541
1467 1468 1469 1470 1471 1473 1474 1474 1475 1476 1477 1479 1480 1482 1483 1485 1487 1489 1491 1492 1494 1496 1497 1499 1500 1502 1503 1505 1508 1510 1512 1514 1517 1519 1522 1524 1527 1529 1532 1534 1537 1539 1541 1543
1466 1466 1467 1469 1470 1471 1473 1475 1476 1477 1478 1480 1481 1482 1484 1486 1487 1489 1491 1493 1495 1497 1498 1500 1501 1503 1505 1507 1509 1511 1514 1516 1519 1521 1524 1526 1528 1531 1533 1535 1538 1540 1543 1545
1464 1465 1467 1468 1470 1471 1473 1475 1477 1478 1479 1480 1482 1484 1485 1487 1489 1491 1493 1495 1496 1498 1500 1502 1503 1505 1507 1509 1512 1514 1516 1518 1521 1523 1526 1528 1531 1533 1535 1537 1540 1542 1544 1545
1464 1465 1466 1468 1470 1471 1473 1475 1477 1479 1481 1482 1484 1485 1487 1489 1491 1493 1495 1497 1498 1500 1502 1504 1506 1508 1510 1512 1514 1516 1519 1521 1523 1526 1528 1530 1533 1534 1536 1539 1541 1543 1544 1546
1464 1465 1466 1468 1470 1472 1474 1476 1478 1480 1482 1484 1486 1487 1489 1491 1494 1495 1497 1499 1502 1503 1505 1507 1509 1511 1513 1515 1517 1519 1522 1524 1526 1528 1530 1532 1534 1536 1538 1540 1541 1543 1545 1547
1464 1466 1467 1469 1471 1473 1476 1478 1480 1482 1484 1486 1488 1490 1492 1494 1496 1498 1500 1503 1505 1507 1508 1510 1512 1514 1516 1518 1520 1523 1525 1527 1529 1530 1532 1534 1536 1537 1539 1540 1542 1543 1545 1546
1465 1467 1469 1471 1473 1475 1478 1480 1482 1484 1486 1488 1491 1493 1495 1497 1499 1501 1503 1506 1508 1510 1512 1514 1516 1518 1520 1522 1524 1526 1528 1529 1531 1532 1534 1535 1537 1538 1539 1541 1542 1543 1545 1546
1467 1469 1471 1473 1475 1478 1480 1482 1485 1487 1489 1491 1494 1496 1498 1500 1502 1504 1506 1509 1511 1513 1515 1517 1519 1521 1523 1525 1527 1528 1530 1531 1532 1534 1535 1536 1537 1539 1540 1541 1542 1543 1544 1545
1470 1472 1474 1476 1478 1481 1483 1485 1488 1490 1492 1495 1497 1499 1501 1503 1505 1508 1510 1512 1514 1516 1518 1520 1522 1524 1526 1527 1529 1530 1531 1533 1533 1534 1535 1537 1538 1539 1540 1541 1542 1542 1543 1544
1474 1476 1478 1480 1482 1484 1487 1489 1491 1493 1496 1498 1500 1502 1505 1507 1509 1511 1513 1515 1517 1519 1521 1523 1525 1526 1528 1529 1530 1531 1532 1533 1534 1535 1536 1537 1538 1538 1539 1540 1540 1541 1541 1542
1478 1480 1483 1485 1487 1490 1492 1494 1496 1498 1500 1502 1504 1506 1508 1511 1513 1515 1517 1519 1520 1522 1524 1525 1527 1528 1529 1530 1531 1532 1533 1534 1534 1535 1535 1536 1536 1537 1537 1538 1538 1538 1539 1539